Project,Study,Ord_Occ,Event_Num,Cast_ID,Date_Time_UTC,Date_Time_PST,Lat_Dec,Lon_Dec,Sta_ID,Line,Sta,Depth,Pressure,PrQ,Temp1,Temp1Q,Temp2,Temp2Q,TempAve,Salt1,Salt1Q,Salt1_Corr,Salt2,Salt2Q,Salt2_Corr,SaltAve_Corr,Ox1,Ox1Q,Ox1_CruiseCorr,Ox1_StaCorr,Ox2,Ox2Q,Ox2_CruiseCorr,Ox2_StaCorr,OxAve_StaCorr,Ox1uM,Ox1uM_CruiseCorr,Ox1uM_StaCorr,Ox2uM,Ox2uM_CruiseCorr,Ox2uM_StaCorr,OxAveuM_StaCorr,FluorV,FluorQ,EstChl_CruiseCorr,EstChl_StaCorr,ISUSV,ISUSQ,EstNO3_CruiseCorr,EstNO3_StaCorr,SigThetaTS1,SigThetaTS1Q,SigThetaTS2,SigThetaTS2Q,BAT,XMiss,TransQ,pH,pHQ,SPAR,SPARQ,PAR,PARQ,PoT1,PoT2,DynHt,SVA,OxSat1,OxSat2,BTL_Depth,BTL_Temp,SaltB,OxB,OxBuM,Chl-a,Phaeo,NO3,NO2,NH4,PO4,SIL
CalCOFI,2007SR,015,,2007_015d,16-Jul-2020 00:14:26,15-Jul-2020 16:14:26,30.51327,-122.25875,093.3 100.0,093.3,100.0,2.000,2.014,,19.3994,,19.3996,,19.3995,33.4426,,33.4428,33.4434,,33.4450,33.4439,5.1901,,5.4054,5.4041,3.8179,,5.1733,4.2462,4.8252,226.416,235.8676,216.9608,166.555,388.2364,167.2722,192.1165,0.0300,,,0.0331,0.2741,,0.0000,0.032,23.7297,,23.7302,,0.6567,84.8590,,8.130,,2.5478E+03,,2.3924E+01,,19.3990,19.3993,-0.0004,,98.278,72.295,,,,,,,,,,,,
CalCOFI,2007SR,015,,2007_015d,16-Jul-2020 00:14:32,15-Jul-2020 16:14:32,30.51327,-122.25874,093.3 100.0,093.3,100.0,3.000,3.021,,19.3950,,19.3955,,19.3953,33.4426,,33.4428,33.4432,,33.4448,33.4438,5.1905,,5.4059,5.4046,3.8190,,5.1759,4.2485,4.8266,226.432,235.8843,216.9757,166.601,388.2755,167.3619,192.1688,0.0305,,,0.0381,0.2636,,0.0000,0.000,23.7309,,23.7312,,0.6569,84.8546,,8.130,,2.5216E+03,,1.9866E+01,,19.3945,19.3950,0.0057,,98.277,72.310,3,19.396,33.4368,5.450,237.89,0.021,0.001,0.0,0.00,0.05,0.25,1.40
CalCOFI,2007SR,015,,2007_015d,16-Jul-2020 00:14:36,15-Jul-2020 16:14:36,30.51326,-122.25874,093.3 100.0,093.3,100.0,4.000,4.028,,19.3982,,19.3981,,19.3982,33.4430,,33.4432,33.4435,,33.4451,33.4442,5.1900,,5.4053,5.4040,3.8228,,5.1850,4.2567,4.8304,226.413,235.8644,216.9580,166.768,388.2291,167.6874,192.3227,0.0308,,,0.0411,0.2731,,0.0000,0.006,23.7304,,23.7308,,0.6570,84.8515,,8.130,,2.5323E+03,,1.7687E+01,,19.3975,19.3974,0.0133,,98.275,72.386,,,,,,,,,,,,
CalCOFI,2007SR,015,,2007_015d,16-Jul-2020 00:14:37,15-Jul-2020 16:14:37,30.51327,-122.25874,093.3 100.0,093.3,100.0,5.000,5.035,,19.3990,,19.3988,,19.3989,33.4429,,33.4431,33.4435,,33.4451,33.4441,5.1880,,5.4032,5.4019,3.8233,,5.1862,4.2577,4.8298,226.324,235.7715,216.8747,166.792,388.0114,167.7341,192.3044,0.0306,,,0.0391,0.2621,,0.0000,0.000,23.7302,,23.7307,,0.6577,84.8376,,8.130,,2.5142E+03,,1.5306E+01,,19.3981,19.3979,0.0176,,98.237,72.397,,,,,,,,,,,,
CalCOFI,2007SR,015,,2007_015d,16-Jul-2020 00:14:40,15-Jul-2020 16:14:40,30.51326,-122.25874,093.3 100.0,093.3,100.0,6.000,6.041,,19.3993,,19.3987,,19.3990,33.4429,,33.4431,33.4435,,33.4451,33.4441,5.1883,,5.4036,5.4023,3.8243,,5.1886,4.2599,4.8311,226.339,235.7872,216.8887,166.833,388.0481,167.8141,192.3514,0.0297,,,0.0300,0.2606,,0.0000,0.000,23.7301,,23.7308,,0.6567,84.8576,,8.130,,2.4982E+03,,1.4043E+01,,19.3982,19.3976,0.0219,,98.245,72.415,,,,,,,,,,,,
CalCOFI,2007SR,015,,2007_015d,16-Jul-2020 00:14:44,15-Jul-2020 16:14:44,30.51326,-122.25876,093.3 100.0,093.3,100.0,7.000,7.048,,19.3997,,19.3994,,19.3996,33.4432,,33.4434,33.4440,,33.4456,33.4445,5.1919,,5.4073,5.4060,3.8276,,5.1964,4.2669,4.8365,226.494,235.9490,217.0338,166.980,388.4272,168.1006,192.5672,0.0302,,,0.0351,0.2623,,0.0000,0.000,23.7303,,23.7309,,0.6563,84.8673,,8.130,,2.5095E+03,,1.3033E+01,,19.3984,19.3982,0.0264,,98.313,72.480,,,,,,,,,,,,
CalCOFI,2007SR,015,,2007_015d,16-Jul-2020 00:14:45,15-Jul-2020 16:14:45,30.51326,-122.25874,093.3 100.0,093.3,100.0,8.000,8.055,,19.3999,,19.4000,,19.4000,33.4430,,33.4432,33.4439,,33.4455,33.4444,5.1910,,5.4064,5.4051,3.8297,,5.2014,4.2714,4.8383,226.458,235.9114,217.0001,167.068,388.3391,168.2721,192.6361,0.0305,,,0.0381,0.2625,,0.0000,0.000,23.7302,,23.7308,,0.6563,84.8670,,8.130,,2.5225E+03,,1.2709E+01,,19.3985,19.3985,0.0306,,98.297,72.519,,,,,,,,,,,,
CalCOFI,2007SR,015,,2007_015d,16-Jul-2020 00:14:46,15-Jul-2020 16:14:46,30.51326,-122.25874,093.3 100.0,093.3,100.0,9.000,9.062,,19.4034,,19.4040,,19.4037,33.4431,,33.4433,33.4438,,33.4454,33.4444,5.1889,,5.4042,5.4029,3.8284,,5.1983,4.2686,4.8358,226.366,235.8154,216.9140,167.013,388.1141,168.1649,192.5395,0.0309,,,0.0421,0.2625,,0.0000,0.000,23.7294,,23.7298,,0.6563,84.8670,,8.130,,2.5287E+03,,1.1493E+01,,19.4018,19.4023,0.0348,,98.264,72.500,,,,,,,,,,,,
CalCOFI,2007SR,015,,2007_015d,16-Jul-2020 00:14:48,15-Jul-2020 16:14:48,30.51326,-122.25874,093.3 100.0,093.3,100.0,10.000,10.069,,19.3946,,19.3989,,19.3968,33.4428,,33.4430,33.4435,,33.4451,33.4441,5.1867,,5.4019,5.4006,3.8292,,5.2002,4.2703,4.8355,226.269,235.7141,216.8232,167.048,387.8769,168.2331,192.5282,0.0306,,,0.0391,0.2623,,0.0000,0.000,23.7315,,23.7309,,0.6567,84.8581,,8.130,,2.5246E+03,,1.0455E+01,,19.3928,19.3971,0.0391,,98.206,72.509,,,,,,,,,,,,
CalCOFI,2007SR,015,,2007_015d,16-Jul-2020 00:14:52,15-Jul-2020 16:14:52,30.51326,-122.25875,093.3 100.0,093.3,100.0,11.000,11.076,,19.3755,,19.3769,,19.3762,33.4408,,33.4410,33.4406,,33.4422,33.4416,5.1792,,5.3940,5.3927,3.8320,,5.2069,4.2763,4.8345,225.942,235.3728,216.5173,167.169,387.0771,168.4689,192.4931,0.0311,,,0.0441,0.2613,,0.0000,0.000,23.7348,,23.7343,,0.6569,84.8543,,8.130,,2.5440E+03,,1.0263E+01,,19.3735,19.3749,0.0435,,98.028,72.530,,,,,,,,,,,,
CalCOFI,2007SR,015,,2007_015d,16-Jul-2020 00:14:53,15-Jul-2020 16:14:53,30.51326,-122.25874,093.3 100.0,093.3,100.0,12.000,12.083,,19.3419,,19.3399,,19.3409,33.4403,,33.4405,33.4404,,33.4420,33.4413,5.1873,,5.4025,5.4012,3.8393,,5.2244,4.2919,4.8466,226.292,235.7381,216.8448,167.487,387.9331,169.0887,192.9668,0.0305,,,0.0381,0.2598,,0.0000,0.000,23.7431,,23.7437,,0.6580,84.8308,,8.130,,2.5329E+03,,9.5913E+00,,19.3397,19.3378,0.0477,,98.119,72.619,,,,,,,,,,,,
CalCOFI,2007SR,015,,2007_015d,16-Jul-2020 00:14:54,15-Jul-2020 16:14:54,30.51326,-122.25874,093.3 100.0,093.3,100.0,13.000,13.090,,19.3063,,19.3042,,19.3053,33.4391,,33.4393,33.4391,,33.4407,33.4400,5.1900,,5.4053,5.4040,3.8398,,5.2256,4.2930,4.8485,226.409,235.8603,216.9542,167.509,388.2193,169.1316,193.0429,0.0309,,,0.0421,0.2582,,0.0000,0.000,23.7514,,23.7519,,0.6586,84.8203,,8.131,,2.5251E+03,,9.1288E+00,,19.3040,19.3018,0.0519,,98.105,72.580,13,19.315,33.4404,5.406,235.96,0.076,0.005,0.0,0.00,0.00,0.25,1.37
CalCOFI,2007SR,015,,2007_015d,16-Jul-2020 00:14:56,15-Jul-2020 16:14:56,30.51326,-122.25874,093.3 100.0,093.3,100.0,14.000,14.097,,19.2773,,19.2776,,19.2775,33.4396,,33.4398,33.4413,,33.4429,33.4414,5.1864,,5.4016,5.4003,3.8417,,5.2301,4.2970,4.8487,226.251,235.6953,216.8064,167.586,387.8328,169.2816,193.0440,0.0311,,,0.0441,0.2563,,0.0000,0.000,23.7592,,23.7604,,0.6586,84.8208,,8.132,,2.5362E+03,,8.6541E+00,,19.2748,19.2750,0.0561,,97.985,72.580,,,,,,,,,,,,
CalCOFI,2007SR,015,,2007_015d,16-Jul-2020 00:14:59,15-Jul-2020 16:14:59,30.51326,-122.25874,093.3 100.0,093.3,100.0,15.000,15.104,,19.2598,,19.2600,,19.2599,33.4379,,33.4381,33.4382,,33.4398,33.4390,5.1897,,5.4050,5.4037,3.8442,,5.2361,4.3023,4.8530,226.394,235.8446,216.9402,167.698,388.1826,169.4999,193.2201,0.0312,,,0.0451,0.2548,,0.0000,0.000,23.7624,,23.7625,,0.6598,84.7932,,8.132,,2.5607E+03,,8.3501E+00,,19.2571,19.2573,0.0602,,98.014,72.603,,,,,,,,,,,,
CalCOFI,2007SR,015,,2007_015d,16-Jul-2020 00:15:01,15-Jul-2020 16:15:01,30.51324,-122.25874,093.3 100.0,093.3,100.0,16.000,16.111,,19.1981,,19.1983,,19.1982,33.4393,,33.4395,33.4400,,33.4416,33.4406,5.1945,,5.4100,5.4088,3.8509,,5.2521,4.3167,4.8628,226.598,236.0576,217.1310,167.988,388.6815,170.0651,193.5981,0.0309,,,0.0421,0.2557,,0.0000,0.000,23.7792,,23.7796,,0.6610,84.7681,,8.132,,2.5483E+03,,8.1267E+00,,19.1953,19.1955,0.0644,,97.992,72.647,,,,,,,,,,,,
CalCOFI,2007SR,015,,2007_015d,16-Jul-2020 00:15:03,15-Jul-2020 16:15:03,30.51326,-122.25874,093.3 100.0,093.3,100.0,17.000,17.118,,19.1948,,19.1948,,19.1948,33.4397,,33.4399,33.4403,,33.4419,33.4409,5.1965,,5.4121,5.4109,3.8492,,5.2480,4.3130,4.8620,226.684,236.1473,217.2115,167.913,388.8919,169.9190,193.5653,0.0322,,,0.0549,0.2573,,0.0000,0.000,23.7803,,23.7808,,0.6613,84.7624,,8.132,,2.5624E+03,,7.8117E+00,,19.1918,19.1917,0.0685,,98.024,72.610,,,,,,,,,,,,
CalCOFI,2007SR,015,,2007_015d,16-Jul-2020 00:15:04,15-Jul-2020 16:15:04,30.51326,-122.25874,093.3 100.0,093.3,100.0,18.000,18.125,,19.1905,,19.1903,,19.1904,33.4398,,33.4400,33.4405,,33.4421,33.4411,5.1960,,5.4116,5.4104,3.8525,,5.2559,4.3201,4.8653,226.664,236.1264,217.1928,168.054,388.8430,170.1938,193.6933,0.0314,,,0.0471,0.2590,,0.0000,0.000,23.7816,,23.7822,,0.6611,84.7674,,8.133,,2.5599E+03,,7.4224E+00,,19.1873,19.1871,0.0727,,98.008,72.665,,,,,,,,,,,,
CalCOFI,2007SR,015,,2007_015d,16-Jul-2020 00:15:06,15-Jul-2020 16:15:06,30.51326,-122.25874,093.3 100.0,093.3,100.0,19.000,19.132,,19.1909,,19.1914,,19.1912,33.4401,,33.4403,33.4409,,33.4425,33.4414,5.1943,,5.4098,5.4086,3.8509,,5.2521,4.3167,4.8627,226.589,236.0482,217.1226,167.985,388.6595,170.0593,193.5910,0.0315,,,0.0481,0.2621,,0.0000,0.000,23.7818,,23.7822,,0.6604,84.7819,,8.132,,2.5914E+03,,7.1300E+00,,19.1875,19.1880,0.0768,,97.976,72.637,,,,,,,,,,,,
CalCOFI,2007SR,015,,2007_015d,16-Jul-2020 00:15:10,15-Jul-2020 16:15:10,30.51324,-122.25874,093.3 100.0,093.3,100.0,20.000,20.139,,19.1908,,19.1897,,19.1903,33.4403,,33.4405,33.4411,,33.4427,33.4416,5.1897,,5.4050,5.4037,3.8533,,5.2578,4.3218,4.8628,226.389,235.8394,216.9355,168.090,388.1704,170.2639,193.5997,0.0316,,,0.0490,0.2653,,0.0000,0.000,23.7820,,23.7829,,0.6605,84.7797,,8.131,,2.5777E+03,,7.0909E+00,,19.1872,19.1861,0.0810,,97.890,72.680,,,,,,,,,,,,
CalCOFI,2007SR,015,,2007_015d,16-Jul-2020 00:15:11,15-Jul-2020 16:15:11,30.51326,-122.25874,093.3 100.0,093.3,100.0,21.000,21.146,,19.1865,,19.1864,,19.1865,33.4404,,33.4406,33.4412,,33.4428,33.4417,5.1916,,5.4070,5.4057,3.8535,,5.2583,4.3222,4.8640,226.470,235.9239,217.0113,168.100,388.3685,170.2834,193.6474,0.0318,,,0.0510,0.2662,,0.0000,0.000,23.7832,,23.7838,,0.6611,84.7663,,8.132,,2.4436E+03,,6.9137E+00,,19.1827,19.1827,0.0851,,97.917,72.680,,,,,,,,,,,,
CalCOFI,2007SR,015,,2007_015d,16-Jul-2020 00:15:12,15-Jul-2020 16:15:12,30.51326,-122.25874,093.3 100.0,093.3,100.0,22.000,22.153,,19.1848,,19.1847,,19.1848,33.4404,,33.4406,33.4413,,33.4429,33.4418,5.1963,,5.4119,5.4107,3.8534,,5.2580,4.3220,4.8664,226.675,236.1379,217.2031,168.093,388.8699,170.2698,193.7365,0.0326,,,0.0588,0.2673,,0.0000,0.000,23.7837,,23.7844,,0.6618,84.7511,,8.132,,2.4393E+03,,6.6415E+00,,19.1809,19.1807,0.0892,,98.003,72.675,,,,,,,,,,,,
CalCOFI,2007SR,015,,2007_015d,16-Jul-2020 00:15:14,15-Jul-2020 16:15:14,30.51326,-122.25874,093.3 100.0,093.3,100.0,23.000,23.160,,19.1838,,19.1838,,19.1838,33.4404,,33.4406,33.4413,,33.4429,33.4418,5.1964,,5.4120,5.4108,3.8517,,5.2540,4.3184,4.8646,226.680,236.1432,217.2078,168.022,388.8821,170.1314,193.6696,0.0314,,,0.0471,0.2675,,0.0000,0.000,23.7840,,23.7847,,0.6611,84.7672,,8.132,,2.5069E+03,,6.4759E+00,,19.1797,19.1797,0.0934,,98.003,72.643,,,,,,,,,,,,
CalCOFI,2007SR,015,,2007_015d,16-Jul-2020 00:15:18,15-Jul-2020 16:15:18,30.51325,-122.25874,093.3 100.0,093.3,100.0,24.000,24.167,,19.1846,,19.1848,,19.1847,33.4405,,33.4407,33.4415,,33.4431,33.4419,5.1950,,5.4106,5.4093,3.8519,,5.2544,4.3188,4.8641,226.620,236.0805,217.1516,168.030,388.7354,170.1470,193.6493,0.0322,,,0.0549,0.2660,,0.0000,0.000,23.7839,,23.7846,,0.6602,84.7862,,8.131,,2.6464E+03,,6.3819E+00,,19.1804,19.1805,0.0975,,97.978,72.648,,,,,,,,,,,,
CalCOFI,2007SR,015,,2007_015d,16-Jul-2020 00:15:20,15-Jul-2020 16:15:20,30.51326,-122.25874,093.3 100.0,093.3,100.0,25.000,25.174,,19.1828,,19.1829,,19.1829,33.4404,,33.4406,33.4413,,33.4429,33.4418,5.1879,,5.4031,5.4018,3.8522,,5.2552,4.3194,4.8606,226.311,235.7580,216.8625,168.042,387.9796,170.1704,193.5165,0.0330,,,0.0627,0.2660,,0.0000,0.000,23.7844,,23.7850,,0.6619,84.7499,,8.131,,2.6561E+03,,6.3078E+00,,19.1784,19.1785,0.1017,,97.841,72.650,,,,,,,,,,,,
CalCOFI,2007SR,015,,2007_015d,16-Jul-2020 00:15:21,15-Jul-2020 16:15:21,30.51326,-122.25874,093.3 100.0,093.3,100.0,26.000,26.181,,19.1815,,19.1814,,19.1815,33.4405,,33.4407,33.4412,,33.4428,33.4418,5.1938,,5.4093,5.4080,3.8531,,5.2573,4.3213,4.8647,226.567,236.0252,217.1021,168.081,388.6057,170.2464,193.6743,0.0317,,,0.0500,0.2664,,0.0000,0.000,23.7848,,23.7854,,0.6616,84.7558,,8.132,,2.6521E+03,,6.0405E+00,,19.1769,19.1768,0.1058,,97.950,72.665,,,,,,,,,,,,
CalCOFI,2007SR,015,,2007_015d,16-Jul-2020 00:15:22,15-Jul-2020 16:15:22,30.51326,-122.25874,093.3 100.0,093.3,100.0,27.000,27.188,,19.1793,,19.1791,,19.1792,33.4406,,33.4408,33.4414,,33.4430,33.4419,5.1951,,5.4107,5.4094,3.8537,,5.2587,4.3226,4.8660,226.624,236.0847,217.1554,168.109,388.7451,170.3009,193.7282,0.0322,,,0.0549,0.2668,,0.0000,0.000,23.7855,,23.7861,,0.6614,84.7605,,8.132,,2.6217E+03,,5.7555E+00,,19.1745,19.1743,0.1100,,97.971,72.674,,,,,,,,,,,,
CalCOFI,2007SR,015,,2007_015d,16-Jul-2020 00:15:24,15-Jul-2020 16:15:24,30.51326,-122.25874,093.3 100.0,093.3,100.0,28.000,28.195,,19.1790,,19.1791,,19.1791,33.4408,,33.4410,33.4417,,33.4433,33.4422,5.1959,,5.4115,5.4102,3.8536,,5.2585,4.3224,4.8663,226.660,236.1223,217.1891,168.103,388.8332,170.2893,193.7392,0.0319,,,0.0520,0.2671,,0.0000,0.000,23.7857,,23.7864,,0.6615,84.7570,,8.132,,2.5040E+03,,5.4748E+00,,19.1740,19.1741,0.1143,,97.986,72.672,28,19.176,33.4291,5.390,235.27,0.038,0.011,0.0,0.00,0.10,0.29,1.36
CalCOFI,2007SR,015,,2007_015d,16-Jul-2020 00:15:28,15-Jul-2020 16:15:28,30.51326,-122.25874,093.3 100.0,093.3,100.0,29.000,29.202,,19.1793,,19.1794,,19.1794,33.4409,,33.4411,33.4418,,33.4434,33.4423,5.1979,,5.4136,5.4124,3.8548,,5.2614,4.3250,4.8687,226.745,236.2110,217.2686,168.154,389.0411,170.3887,193.8287,0.0320,,,0.0530,0.2662,,0.0000,0.000,23.7858,,23.7865,,0.6617,84.7532,,8.131,,2.0211E+03,,5.2317E+00,,19.1741,19.1742,0.1189,,98.024,72.695,,,,,,,,,,,,
CalCOFI,2007SR,015,,2007_015d,16-Jul-2020 00:15:29,15-Jul-2020 16:15:29,30.51326,-122.25874,093.3 100.0,093.3,100.0,30.000,30.209,,19.1778,,19.1778,,19.1778,33.4412,,33.4414,33.4420,,33.4436,33.4425,5.1945,,5.4100,5.4088,3.8552,,5.2623,4.3258,4.8673,226.597,236.0565,217.1301,168.175,388.6791,170.4296,193.7799,0.0323,,,0.0559,0.2657,,0.0000,0.000,23.7865,,23.7871,,0.6619,84.7482,,8.132,,1.7128E+03,,5.0365E+00,,19.1725,19.1725,0.1230,,97.957,72.702,,,,,,,,,,,,
CalCOFI,2007SR,015,,2007_015d,16-Jul-2020 00:15:30,15-Jul-2020 16:15:30,30.51326,-122.25874,093.3 100.0,093.3,100.0,31.000,31.216,,19.1772,,19.1772,,19.1772,33.4414,,33.4416,33.4422,,33.4438,33.4427,5.1993,,5.4150,5.4138,3.8554,,5.2628,4.3263,4.8701,226.806,236.2747,217.3257,168.180,389.1903,170.4393,193.8825,0.0327,,,0.0598,0.2659,,0.0000,0.000,23.7868,,23.7874,,0.6622,84.7424,,8.131,,1.6483E+03,,4.8668E+00,,19.1716,19.1716,0.1272,,98.046,72.703,,,,,,,,,,,,
CalCOFI,2007SR,015,,2007_015d,16-Jul-2020 00:15:32,15-Jul-2020 16:15:32,30.51326,-122.25874,093.3 100.0,093.3,100.0,32.000,32.223,,19.1768,,19.1768,,19.1768,33.4414,,33.4416,33.4423,,33.4439,33.4428,5.1980,,5.4137,5.4125,3.8522,,5.2552,4.3194,4.8660,226.747,236.2131,217.2704,168.040,389.0460,170.1665,193.7185,0.0330,,,0.0627,0.2670,,0.0000,0.000,23.7869,,23.7876,,0.6625,84.7367,,8.132,,1.6762E+03,,4.6946E+00,,19.1711,19.1711,0.1313,,98.020,72.642,,,,,,,,,,,,
CalCOFI,2007SR,015,,2007_015d,16-Jul-2020 00:15:36,15-Jul-2020 16:15:36,30.51327,-122.25875,093.3 100.0,093.3,100.0,33.000,33.230,,19.1772,,19.1773,,19.1773,33.4415,,33.4417,33.4423,,33.4439,33.4428,5.1957,,5.4113,5.4100,3.8537,,5.2587,4.3226,4.8663,226.648,236.1097,217.1778,168.106,388.8038,170.2951,193.7365,0.0325,,,0.0578,0.2715,,0.0000,0.000,23.7869,,23.7875,,0.6612,84.7643,,8.131,,1.2369E+03,,4.5241E+00,,19.1714,19.1715,0.1363,,97.978,72.671,,,,,,,,,,,,
CalCOFI,2007SR,015,,2007_015d,16-Jul-2020 00:15:38,15-Jul-2020 16:15:38,30.51326,-122.25874,093.3 100.0,093.3,100.0,34.000,34.237,,19.1763,,19.1765,,19.1764,33.4418,,33.4420,33.4425,,33.4441,33.4431,5.1999,,5.4157,5.4145,3.8537,,5.2587,4.3226,4.8686,226.831,236.3008,217.3490,168.107,389.2514,170.2971,193.8231,0.0325,,,0.0578,0.2741,,0.0000,0.032,23.7874,,23.7880,,0.6628,84.7309,,8.131,,1.2351E+03,,4.4951E+00,,19.1702,19.1704,0.1408,,98.055,72.671,,,,,,,,,,,,
CalCOFI,2007SR,015,,2007_015d,16-Jul-2020 00:15:39,15-Jul-2020 16:15:39,30.51326,-122.25874,093.3 100.0,093.3,100.0,35.000,35.244,,19.1752,,19.1753,,19.1753,33.4420,,33.4422,33.4428,,33.4444,33.4433,5.1966,,5.4122,5.4110,3.8543,,5.2602,4.3239,4.8675,226.689,236.1525,217.2162,168.132,388.9041,170.3458,193.7810,0.0331,,,0.0636,0.2756,,0.0000,0.073,23.7879,,23.7885,,0.6623,84.7402,,8.131,,1.2401E+03,,4.3664E+00,,19.1690,19.1690,0.1449,,97.992,72.680,,,,,,,,,,,,
CalCOFI,2007SR,015,,2007_015d,16-Jul-2020 00:15:40,15-Jul-2020 16:15:40,30.51326,-122.25874,093.3 100.0,093.3,100.0,36.000,36.251,,19.1736,,19.1735,,19.1736,33.4422,,33.4424,33.4431,,33.4447,33.4436,5.2024,,5.4183,5.4171,3.8549,,5.2616,4.3252,4.8712,226.941,236.4156,217.4520,168.158,389.5205,170.3965,193.9243,0.0333,,,0.0655,0.2773,,0.0000,0.118,23.7886,,23.7893,,0.6626,84.7339,,8.132,,1.2241E+03,,4.2211E+00,,19.1671,19.1671,0.1491,,98.099,72.689,,,,,,,,,,,,
CalCOFI,2007SR,015,,2007_015d,16-Jul-2020 00:15:41,15-Jul-2020 16:15:41,30.51328,-122.25874,093.3 100.0,093.3,100.0,37.000,37.258,,19.1712,,19.1710,,19.1711,33.4426,,33.4428,33.4434,,33.4450,33.4439,5.1963,,5.4119,5.4107,3.8555,,5.2630,4.3265,4.8686,226.675,236.1379,217.2031,168.187,388.8699,170.4530,193.8281,0.0339,,,0.0712,0.2794,,0.0000,0.174,23.7895,,23.7902,,0.6631,84.7230,,8.131,,1.1870E+03,,4.0874E+00,,19.1646,19.1644,0.1532,,97.979,72.698,,,,,,,,,,,,
CalCOFI,2007SR,015,,2007_015d,16-Jul-2020 00:15:46,15-Jul-2020 16:15:46,30.51327,-122.25875,093.3 100.0,093.3,100.0,38.000,38.265,,19.1697,,19.1694,,19.1696,33.4420,,33.4422,33.4435,,33.4451,33.4437,5.1712,,5.3857,5.3843,3.8606,,5.2752,4.3374,4.8609,225.578,234.9928,216.1768,168.409,386.1868,170.8857,193.5313,0.0326,,,0.0588,0.2803,,0.0000,0.199,23.7895,,23.7907,,0.6639,84.7073,,8.131,,1.1429E+03,,4.0317E+00,,19.1630,19.1627,0.1584,,97.502,72.792,,,,,,,,,,,,
CalCOFI,2007SR,015,,2007_015d,16-Jul-2020 00:15:48,15-Jul-2020 16:15:48,30.51326,-122.25876,093.3 100.0,093.3,100.0,39.000,39.273,,19.1225,,19.1217,,19.1221,33.4369,,33.4371,33.4361,,33.4377,33.4374,5.2890,,5.5088,5.5082,3.8882,,5.3411,4.3963,4.9523,230.715,240.3553,220.9828,169.612,398.7511,173.2303,197.1066,0.0334,,,0.0665,0.2762,,0.0000,0.089,23.7976,,23.7972,,0.6702,84.5726,,8.133,,1.1502E+03,,3.9171E+00,,19.1156,19.1148,0.1633,,99.633,73.245,,,,,,,,,,,,
CalCOFI,2007SR,015,,2007_015d,16-Jul-2020 00:15:49,15-Jul-2020 16:15:49,30.51326,-122.25875,093.3 100.0,093.3,100.0,40.000,40.280,,19.0351,,19.0406,,19.0379,33.4237,,33.4239,33.4224,,33.4240,33.4240,5.3863,,5.6104,5.6106,3.8894,,5.3440,4.3989,5.0048,234.956,244.7825,224.9505,169.661,409.1240,173.3258,199.1382,0.0346,,,0.0778,0.2740,,0.0000,0.030,23.8097,,23.8073,,0.6739,84.4948,,8.133,,1.1320E+03,,3.7870E+00,,19.0280,19.0335,0.1674,,101.293,73.150,,,,,,,,,,,,
CalCOFI,2007SR,015,,2007_015d,16-Jul-2020 00:15:50,15-Jul-2020 16:15:50,30.51326,-122.25874,093.3 100.0,093.3,100.0,41.000,41.287,,18.7595,,18.7656,,18.7626,33.3857,,33.3859,33.3775,,33.3791,33.3825,5.3474,,5.5698,5.5697,3.8968,,5.3616,4.4147,4.9922,233.251,243.0026,223.3554,169.978,404.9538,173.9436,198.6495,0.0356,,,0.0870,0.2713,,0.0000,0.000,23.8500,,23.8422,,0.6780,84.4099,,8.136,,1.1205E+03,,3.6362E+00,,18.7523,18.7584,0.1715,,100.021,72.893,,,,,,,,,,,,
CalCOFI,2007SR,015,,2007_015d,16-Jul-2020 00:15:53,15-Jul-2020 16:15:53,30.51327,-122.25874,093.3 100.0,093.3,100.0,42.000,42.294,,18.4334,,18.5267,,18.4801,33.3748,,33.3750,33.3818,,33.3834,33.3792,5.3346,,5.5564,5.5562,3.9276,,5.4352,4.4804,5.0183,232.677,242.4034,222.8184,171.310,403.5499,176.5396,199.6790,0.0359,,,0.0897,0.2645,,0.0000,0.000,23.9222,,23.9045,,0.6767,84.4368,,8.139,,1.0919E+03,,3.5272E+00,,18.4261,18.5194,0.1761,,99.157,73.140,,,,,,,,,,,,
CalCOFI,2007SR,015,,2007_015d,16-Jul-2020 00:15:57,15-Jul-2020 16:15:57,30.51326,-122.25876,093.3 100.0,093.3,100.0,43.000,43.301,,18.2819,,18.2992,,18.2906,33.3093,,33.3095,33.3055,,33.3071,33.3083,5.5200,,5.7501,5.7513,3.9959,,5.5982,4.6262,5.1888,240.766,250.8475,230.3862,174.291,423.3345,182.3495,206.3679,0.0363,,0.0023,0.0933,0.2586,,0.0000,0.000,23.9099,,23.9029,,0.6771,84.4290,,8.135,,1.0730E+03,,3.4353E+00,,18.2745,18.2918,0.1810,,102.273,74.061,43,18.482,33.4175,,239.50,0.073,0.019,0.0,0.00,0.00,0.25,1.33
CalCOFI,2007SR,015,,2007_015d,16-Jul-2020 00:15:58,15-Jul-2020 16:15:58,30.51326,-122.25876,093.3 100.0,093.3,100.0,44.000,44.308,,17.1115,,17.1735,,17.1425,33.2064,,33.2066,33.1943,,33.1959,33.2013,5.7032,,5.9416,5.9440,4.0720,,5.7799,4.7887,5.3664,248.709,259.1392,237.8174,177.578,442.7619,188.7558,213.2866,0.0364,,0.0035,0.0942,0.2591,,0.0000,0.000,24.1135,,24.0895,,0.6895,84.1661,,8.145,,1.0743E+03,,3.3097E+00,,17.1043,17.1663,0.1848,,103.277,73.821,,,,,,,,,,,,
CalCOFI,2007SR,015,,2007_015d,16-Jul-2020 00:15:59,15-Jul-2020 16:15:59,30.51326,-122.25876,093.3 100.0,093.3,100.0,45.000,45.315,,16.7279,,16.7265,,16.7272,33.1807,,33.1809,33.1704,,33.1720,33.1765,5.7183,,5.9574,5.9599,4.1019,,5.8513,4.8526,5.4063,249.349,259.8073,238.4161,178.866,444.3273,191.2661,214.8411,0.0351,,,0.0824,0.2598,,0.0000,0.000,24.1835,,24.1759,,0.6858,84.2448,,8.150,,1.0660E+03,,3.1706E+00,,16.7206,16.7192,0.1886,,102.769,73.712,,,,,,,,,,,,
CalCOFI,2007SR,015,,2007_015d,16-Jul-2020 00:16:00,15-Jul-2020 16:16:00,30.51327,-122.25874,093.3 100.0,093.3,100.0,46.000,46.322,,16.4173,,16.3952,,16.4063,33.1786,,33.1788,33.1761,,33.1777,33.1783,5.7527,,5.9933,5.9961,4.1324,,5.9241,4.9177,5.4569,250.832,261.3554,239.8036,180.182,447.9545,193.8309,216.8173,0.0371,,0.0117,0.1004,0.2610,,0.0000,0.000,24.2536,,24.2567,,0.6812,84.3408,,8.151,,1.0521E+03,,3.0583E+00,,16.4099,16.3879,0.1924,,102.763,73.786,,,,,,,,,,,,
CalCOFI,2007SR,015,,2007_015d,16-Jul-2020 00:16:03,15-Jul-2020 16:16:03,30.51327,-122.25875,093.3 100.0,093.3,100.0,47.000,47.330,,16.3888,,16.5527,,16.4708,33.1976,,33.1978,33.2089,,33.2105,33.2042,5.7366,,5.9765,5.9792,4.1401,,5.9425,4.9341,5.4567,250.125,260.6174,239.1421,180.522,446.2252,194.4936,216.8179,0.0372,,0.0129,0.1013,0.2667,,0.0000,0.000,24.2748,,24.2458,,0.6823,84.3179,,8.148,,1.0434E+03,,2.9806E+00,,16.3814,16.5452,0.1961,,102.431,74.167,,,,,,,,,,,,
CalCOFI,2007SR,015,,2007_015d,16-Jul-2020 00:16:06,15-Jul-2020 16:16:06,30.51326,-122.25876,093.3 100.0,093.3,100.0,48.000,48.337,,16.2612,,16.3494,,16.3053,33.1831,,33.1833,33.1808,,33.1824,33.1829,5.7654,,6.0066,6.0095,4.1840,,6.0473,5.0279,5.5187,251.377,261.9244,240.3135,182.430,449.2875,198.2122,219.2629,0.0373,,0.0141,0.1022,0.2716,,0.0000,0.000,24.2928,,24.2708,,0.6793,84.3806,,8.147,,1.0409E+03,,2.8425E+00,,16.2536,16.3418,0.1998,,102.680,74.643,,,,,,,,,,,,
CalCOFI,2007SR,015,,2007_015d,16-Jul-2020 00:16:08,15-Jul-2020 16:16:08,30.51326,-122.25876,093.3 100.0,093.3,100.0,49.000,49.344,,15.8609,,15.8841,,15.8725,33.1800,,33.1802,33.1771,,33.1787,33.1795,5.8350,,6.0793,6.0827,4.2260,,6.1475,5.1175,5.6001,254.391,265.0707,243.1333,184.241,456.6593,201.7419,222.4376,0.0404,,0.0505,0.1286,0.2730,,0.0000,0.003,24.3810,,24.3736,,0.6756,84.4606,,8.149,,1.0347E+03,,2.6747E+00,,15.8533,15.8765,0.2034,,103.107,74.706,,,,,,,,,,,,
CalCOFI,2007SR,015,,2007_015d,16-Jul-2020 00:16:09,15-Jul-2020 16:16:09,30.51326,-122.25875,093.3 100.0,093.3,100.0,50.000,50.351,,15.7193,,15.7175,,15.7184,33.1795,,33.1797,33.1802,,33.1818,33.1808,5.8564,,6.1017,6.1052,4.2415,,6.1845,5.1506,5.6279,255.315,266.0352,243.9977,184.911,458.9192,203.0477,223.5227,0.0381,,0.0235,0.1092,0.2739,,0.0000,0.027,24.4123,,24.4133,,0.6758,84.4560,,8.149,,1.0334E+03,,2.5531E+00,,15.7115,15.7097,0.2070,,103.196,74.737,,,,,,,,,,,,